177P/Barnard 2 (at the time of 2006/10/3)

Epoch 2006 Aug. 13.0 TT = JDT 2453960.5  

T 2006 Aug. 28.68775 TT                                 Nakano

q   1.1072237            (2000.0)            P               Q

n   0.00823843     Peri.   60.45979     +0.76132948     +0.38999876

a  24.2794937      Node   272.06646     -0.60680652     +0.71000226

e   0.9543968      Incl.   31.21782     +0.22839280     +0.58634269

P 119.64

From 1626 observations 1889-2006, mean residual 0".73.

Residuals in seconds of arc 

1889/                     060722 157  0.6-  0.4-    060815 585  0.9-  0.9-  

890624 662  5.1-  1.4+    060722 157  0.9-  0.2-    060815 585  0.3-  0.4-  

890625 662(10.4-  1.3+)   060722 157  0.4-  0.2-    060815 585  0.4-  0.2+  

890626 662  1.5-  1.3+    060722 157  0.5-  0.3-    060815 585  0.5-  0.6+  

890627 662  1.7-  0.8-    060722 157  0.7-  0.4-    060815 585  0.1-  1.3+  

890628 020 (8.2-  2.2+)   060722 157  0.6-  0.0     060815 585  0.4-  0.6+  

890628 045  2.6-  3.7-    060722 157  0.1-  0.5-    060815 585  0.2-  1.4+  

890630 662  0.4+  1.7-    060722 157  0.7-  0.0     060815 585  0.4-  0.5+  

890701 662  0.0   0.5+    060722 442  2.2-  0.4+    060816 232  0.3-  0.3+  

890702 662  3.2-  2.9-    060722 J59  0.5-  0.2-    060816 232  0.4-  0.2+  

890703 662  4.5+  5.3-    060722 J59  0.2+  0.5-    060816 232  0.4-  0.2+  

890704 662 (2.2+  6.3-)   060722 442  1.7-  0.5+    060816 850  0.1+  0.1-  

890705 662  0.3-  1.6-    060722 J59  1.4-  0.4+    060816 850  0.5-  1.9+  

890705 045  5.1+  1.8+    060722 A02  0.1-  0.4-    060816 850  0.7+  0.1+  

890706 662  1.1-  3.6-    060722 232  0.8-  0.5-    060816 850  0.2+  0.1+  

890708 662  3.4+  4.6+    060722 A02  0.2+  0.3-    060816 850  0.4+  0.3+  

890710 662  1.1-  2.5+    060722 A02  0.1+  0.3-    060816 850 (3.2-  1.1+) 

890711 662  5.2+  0.6-    060722 232  0.8-  0.6-    060816 470  0.3-  0.0   

890801 662 (4.9+ 11.4+)   060722 232  0.7-  0.7-    060816 470  0.4-  0.2+  

890807 662  5.5+  4.5+    060722 939  0.3-  0.2+    060816 470  0.2-  0.1+  

2006/                     060722 939  0.2-  0.3+    060816 470  0.4-  0.1+  

060623 704  1.4+  0.8+    060722 939  0.1-  0.2+    060816 939  0.3-  0.2-  

060623 704  0.8+  0.3-    060723 J76  0.2-  0.5+    060816 939  0.3-  0.3-  

060623 704  1.3+  0.4+    060723 J76  0.0   0.3+    060816 939  0.3-  0.4-  

060623 J87  0.9+  0.1+    060723 J76  0.1+  0.1+    060816 442  1.2-  0.6-  

060623 J87  0.9+  0.7+    060723 G96  0.6-  0.2+    060816 442  1.3-  0.6-  

060623 J87  1.0+  0.7+    060723 G96  0.6-  0.2+    060816 442  1.2-  0.6-  

060623 118  0.5+  0.1-    060723 G96  0.5-  0.4+    060816 442  1.3-  0.4-  

060623 118  1.0+  1.0+    060723 G96  0.5-  0.2+    060816 J70  0.2-  0.4+  

060623 J87  1.0+  1.0+    060723 H45  0.6-  0.0     060816 J70  0.7-  1.5+  

060623 118  0.5+  0.9+    060723 H45  0.3-  0.1+    060816 442  0.9-  0.5-  

060623 118  0.6+  0.1-    060723 H45  0.4-  0.0     060816 J70  0.8-  0.9+  

060623 118  1.0+  0.2+    060723 H45  0.4-  0.0     060816 J70  0.5-  1.4+  

060623 176  1.0+  1.0+    060723 H45  0.4-  0.1+    060816 J70  0.5+  1.1+  

060623 176  0.8+  0.5+    060723 232  0.0   0.3-    060816 J70  1.3+  0.8+  

060623 176  0.2+  0.8+    060723 232  0.0   1.1-    060816 J64  0.5-  0.4+  

060623 204  0.6+  0.7+    060723 232  0.5-  0.2+    060816 J70  0.8-  0.5+  

060623 204  1.2+  0.8+    060723 A11  0.2-  1.0+    060816 J64  0.3-  0.8+  

060623 204  0.4+  0.4+    060723 A11  0.1+  1.1+    060816 J70  0.6+  1.0+  

060623 204  1.0+  0.7+    060723 A11  0.5+  0.4+    060816 J64  0.2+  0.2+  

060624 I77  0.6+  0.2+    060723 A11  0.0   1.6+    060816 J70 (5.4+  5.9+) 

060624 I77  0.3+  0.1-    060723 A11 (0.1+  2.3+)   060816 J70  0.2+  0.8+  

060624 I77  0.6+  0.4+    060723 A11  0.2-  0.6+    060816 J70  0.0   1.2+  

060624 734  0.7+  0.8+    060723 504  0.0   0.0     060816 J70  0.0   1.0+  

060624 734  0.5+  0.7+    060723 504  0.0   0.0     060816 J70  1.3+  1.2+  

060624 734  0.7+  0.6+    060723 504  0.0   0.3+    060817 850  0.2-  0.0   

060624 734  0.6+  0.7+    060723 504  0.3+  0.0     060817 850  0.1+  0.0   

060624 734  0.8+  0.7+    060723 504  0.2+  0.1+    060817 850  0.6-  0.4+  

060624 704  0.8+  0.6+    060723 504  0.0   0.1+    060817 850  0.3+  0.0   

060624 704  0.6+  0.7+    060723 504  0.1-  0.2+    060817 213  0.1+  0.6+  

060624 704  0.7+  0.3-    060723 504  0.1+  0.2+    060817 213  0.7-  0.5+  

060624 H06  0.7-  1.8+    060723 504  0.2+  0.3+    060817 213  0.1+  0.1-  

060624 H06  1.4+  1.8+    060723 504  0.2+  0.0     060817 A97  0.3+  0.8+  

060624 H06  0.6+  1.0+    060723 504  0.2+  0.3+    060817 A97  0.9+  1.5-  

060624 428  0.0   1.0-    060723 504  0.0   0.3+    060817 A97  0.7-  0.3+  

060624 428  0.1+  0.3-    060723 I77  0.2-  0.1-    060817 A97  0.6-  0.1+  

060624 428  0.5+  0.1-    060723 I77  0.6-  0.3-    060817 A97  0.3+  0.6-  

060625 H06  0.8+  0.8+    060723 I77  0.2-  0.0     060817 232  0.4-  0.2+  

060625 H06  0.8+  0.5+    060723 I77  0.0   0.7-    060817 232  0.5-  0.2+  

060625 H06 (2.4+  3.2+)   060724 704 (0.6+  5.0-)   060817 232  0.3-  0.1-  

060625 H06  0.4+  0.1+    060724 704  0.6+  1.8-    060817 442  0.8-  0.8-  

060625 H06  0.2+  0.3+    060724 704  1.1+  2.1-    060817 442  0.4-  0.3-  

060625 H06  1.0+  0.3+    060724 704 (0.7+  3.9-)   060817 J76  0.2-  0.1+  

060625 H06  0.5+  0.5-    060724 704  1.3+  1.3-    060817 J76  0.4-  0.2+  

060625 423  1.5+  0.5+    060724 H45  0.3-  0.3-    060817 J76  0.2-  0.4+  

060625 423  1.2+  0.3+    060724 H45  0.4-  0.2-    060817 J70 (3.8-  1.2+) 

060625 213  0.3-  0.3+    060724 H45  0.2-  0.3-    060818 J70 (2.3+  4.4+) 

060625 213  0.2-  0.3+    060724 H45  0.3-  0.2-    060818 J70 (2.7-  0.9+) 

060625 213  0.5-  0.5+    060724 H45  0.4-  0.1-    060818 J70 (1.1+  6.2+) 

060625 A77  0.3+  0.6+    060724 585  0.3-  0.8+    060818 J70  0.3-  1.8+  

060625 A77  0.1-  1.0+    060724 585  0.2-  0.4+    060818 J70 (1.3-  4.7+) 

060625 A77  0.6+  1.1+    060724 585  0.2-  0.3+    060818 J70 (0.4-  4.6+) 

060625 A77  0.3-  1.7+    060724 213  0.6-  0.4+    060818 J70 (1.0-  4.2+) 

060625 A77  1.4+  0.9+    060724 585  0.1-  0.2+    060818 J70 (0.7+  3.6+) 

060625 130  0.2+  0.8+    060724 585  0.1-  0.0     060818 J70 (4.1+  1.7+) 

060625 A77  1.6+  0.2+    060724 213  0.1+  0.6+    060818 J70  0.3+  0.9+  

060625 A77  0.3+  0.8+    060724 213  0.5-  0.6+    060818 D35  0.3-  1.9+  

060625 A77  2.0+  1.8+    060724 J97  0.4-  0.8-    060818 461  1.0-  0.8+  

060625 A77 (0.5+  2.7+)   060724 J97  0.2-  0.7-    060818 461  0.3-  0.2+  

060625 130  0.1+  1.3+    060724 J97  0.8+  1.1-    060818 461  0.7-  0.3+  

060626 104  0.2+  0.5+    060724 A11 (2.7+  0.7-)   060818 461  0.4-  0.4+  

060626 104  0.9+  1.0+    060724 A11  1.7+  0.1-    060818 048  0.3-  0.0   

060626 213  0.1+  0.9+    060724 A32  0.3-  0.6-    060818 048  0.9-  0.0   

060626 213  0.2+  1.0+    060724 J76  0.1+  0.1+    060818 233 (4.1-  1.5+) 

060626 213  0.5+  1.3+    060724 J76  0.1+  0.1+    060818 048  0.8-  0.8-  

060626 104 (3.3+  1.0+)   060724 A32  0.5-  0.4-    060818 048  0.4-  0.9-  

060626 104  0.5-  1.1+    060724 A11  0.1+  0.8+    060818 235  0.2-  0.2-  

060627 423  0.8+  0.4+    060724 J76  0.1-  0.5+    060818 233 (4.4-  2.0+) 

060627 423  0.7+  0.4+    060724 A32  0.4-  0.0     060818 233 (4.6-  2.0+) 

060627 423  0.2+  0.1-    060724 A11  0.4+  1.2+    060818 138  0.6+  0.8-  

060627 D88  0.3+  0.3-    060724 A32  0.3-  0.5-    060818 138  0.1+  0.5-  

060627 D88  0.8+  1.2+    060724 A11  0.0   0.6+    060818 138  0.1+  0.1-  

060627 423  0.1+  0.0     060724 A32  0.5-  0.6-    060818 138  0.2-  0.3+  

060627 D88  0.8+  1.3+    060724 A11  0.9-  1.5+    060818 213  0.3-  0.2-  

060627 349  0.7+  0.6+    060724 A11 (0.7-  3.0+)   060818 213  0.1-  0.3-  

060627 349  0.6+  0.8+    060724 939  0.3-  0.1-    060818 213  0.6-  0.2+  

060627 349  1.1+  0.4+    060724 939  0.3-  0.1-    060818 138  0.2-  0.4+  

060627 J95  0.8+  0.7+    060724 939  0.2-  0.2-    060818 232  0.0   0.2-  

060627 J95  0.8+  1.2+    060725 349  1.2-  1.1-    060818 232  0.4-  0.2+  

060627 J95  0.7+  1.5+    060725 349  1.2-  0.9-    060818 232  0.4-  0.1+  

060628 850  2.1+  0.9+    060725 A32  0.3-  0.4-    060818 939  0.2-  0.1-  

060628 850  1.0+  0.1+    060725 A32  0.1-  0.6-    060818 939  0.3-  0.2-  

060628 850  0.6+  0.2-    060725 939  0.6-  0.3-    060818 939  0.4-  0.3-  

060628 850  0.8-  0.3-    060725 939  0.2-  0.4-    060818 A01  0.4-  0.2-  

060628 372  2.1+  1.1+    060725 A32  0.2-  0.7-    060818 A01  0.3-  0.1-  

060628 J97  1.2+  1.0+    060725 939  0.4-  0.5-    060818 A01  0.3+  0.1+  

060628 J97 (2.5+  1.0-)   060725 A32  0.3-  0.6-    060818 473  0.1+  0.4-  

060629 850  1.2+  1.0+    060725 A32  0.3-  0.9-    060818 473  1.4-  0.4+  

060629 850  1.6+  0.4+    060726 850  0.8-  1.7+    060818 J70  0.8-  0.7+  

060629 850  0.9+  0.7+    060726 850  0.1-  0.8-    060818 J70  1.0+  0.7+  

060629 850  0.8+  0.5+    060726 850  0.2-  0.3-    060818 J70  0.2-  0.8+  

060629 850  0.6+  0.6+    060726 850  0.4-  0.6+    060818 J70 (0.6+  3.1+) 

060629 850  0.3+  0.7+    060726 850  0.2-  0.6+    060818 J70  0.3-  1.0+  

060629 850  0.5-  0.7+    060726 850  0.2-  0.7-    060818 J70  0.4-  0.2+  

060629 850  1.0+  0.8-    060726 850  0.7-  0.7-    060818 J70  0.7-  0.3+  

060629 F84  0.3+  0.3+    060726 850  0.1+  2.2-    060818 J70  1.1-  0.9+  

060629 F84  0.2-  0.0     060726 850  0.2-  2.2-    060818 J70  0.9-  1.1+  

060629 H06  0.1+  1.6-    060726 850 (0.0   2.5-)   060818 J70  0.7-  1.2+  

060629 H06  1.2+  0.6+    060726 850  0.4-  0.5+    060818 J70  1.2-  0.7+  

060629 F84  0.3+  0.2-    060726 850 (0.2+  3.7-)   060818 J70  1.0+  0.5+  

060629 H06  1.1+  0.4-    060726 850  0.5-  1.2+    060818 J70  0.6-  0.8+  

